Find Starlink 37911

NORAD ID: 100431 Int'l Des: 2026-192 Owner: SPXS Country: US Constellation: starlink operational

Current View

Loading 3D Globe...

About Starlink 37911

Starlink 37911 (NORAD 100431) is a starlink constellation satellite launched Aug 21, 2026 by SPXS of US. with a mass of 575.00 kg.

Upcoming Passes

Passes for default location (London). Set your location on the main map for personalized predictions.

Altitude History

Loading altitude history...

Two-Line Element Set

1 A0431U 26192AD 26262.76524207 .00040006 00000-0 72330-3 0 9997
2 A0431 53.1601 310.4286 0001879 55.7290 304.3896 15.49323472 5843
Epoch: Sep 19, 2026 • Age: 24 hours

Current Status

Altitude 437.2 km
Apogee / Perigee N/A
Velocity 7.65 km/s
Sub-Earth Point -51.56°S, 45.96°W
Launch Date Aug 21, 2026
Age 30 days
Type internet

Technical Details

Classification Payload
Mass 575.00 kg
Dry Mass 530.00 kg
Length 0.30 m
Span 29.00 m
Shape ? Box + pan
Manufacturer SPXS
Bus Type Starlink V2MO
Phase Status In Orbit
Owner/State SPXS/US

Most Searched